This is the latest recevied weather packets stored in our database for station/object W5GMO. If no packets are shown the sender has not sent any weather packets the latest 10 day(s).
| Time | Temp. | Humidity | Pressure | Rain* | Wind** | Luminosity | Snow |
|---|---|---|---|---|---|---|---|
| 1788390244 | 26.11° C | 1% | 1017.3 hPa | 0 mm | - | 17 W/m² | - |
| 1788389944 | 26.11° C | 1% | 1017.6 hPa | 0 mm | - | 21 W/m² | - |
| 1788389639 | 26.11° C | 1% | 1017.5 hPa | 0 mm | - | 27 W/m² | - |
| 1788389338 | 26.67° C | 1% | 1017.9 hPa | 0 mm | - | 36 W/m² | - |
| 1788389038 | 26.67° C | 1% | 1017.9 hPa | 0 mm | - | 47 W/m² | - |
| 1788388735 | 26.67° C | 1% | 1017.8 hPa | 0 mm | - | 60 W/m² | - |
| 1788388434 | 27.22° C | 1% | 1017.9 hPa | 0 mm | - | 82 W/m² | - |
| 1788388129 | 27.22° C | 1% | 1017.6 hPa | 0 mm | - | 104 W/m² | - |
| 1788387828 | 26.67° C | 1% | 1017.5 hPa | 0 mm | - | 127 W/m² | - |
| 1788387522 | 26.67° C | 1% | 1017.7 hPa | 0 mm | - | 140 W/m² | - |
| 1788387221 | 26.67° C | 1% | 1017.7 hPa | 0 mm | - | 130 W/m² | - |
| 1788386917 | 26.67° C | 1% | 1017.7 hPa | 0 mm | - | 169 W/m² | - |
| 1788386616 | 26.11° C | 1% | 1017.9 hPa | 0 mm | - | 146 W/m² | - |
| 1788386312 | 26.11° C | 1% | 1017.9 hPa | 0 mm | - | 132 W/m² | - |
| 1788386012 | 26.11° C | 1% | 1018 hPa | 0 mm | - | 133 W/m² | - |
| 1788385709 | 26.11° C | 1% | 1017.9 hPa | 0 mm | - | 129 W/m² | - |
| 1788385407 | 25.56° C | 1% | 1018.4 hPa | 0 mm | - | 128 W/m² | - |
| 1788385103 | 25.56° C | 1% | 1018.3 hPa | 0 mm | - | 129 W/m² | - |
| 1788384798 | 25.56° C | 1% | 1018.3 hPa | 0 mm | - | 134 W/m² | - |
| 1788384496 | 25° C | 1% | 1018.2 hPa | 0 mm | - | 142 W/m² | - |
| 1788384203 | 25° C | 1% | 1018.2 hPa | 0 mm | - | 143 W/m² | - |
| 1788383890 | 25° C | 1% | 1018 hPa | 0 mm | - | 127 W/m² | - |
| 1788383586 | 25° C | 1% | 1018.3 hPa | 0 mm | - | 104 W/m² | - |
| 1788383286 | 25° C | 1% | 1018.2 hPa | 0 mm | - | 76 W/m² | - |
| 1788382980 | 25° C | 1% | 1018 hPa | 0 mm | - | 55 W/m² | - |
* Rain latest hour (hover to see other rain measurements)
** Current wind speed in m/s (hover to see current wind gust speed)